This is the latest recevied weather packets stored in our database for station/object OK1LPD-5. If no packets are shown the sender has not sent any weather packets the latest 10 day(s).
| Time | Temp. | Humidity | Pressure | Rain* | Wind** | Luminosity | Snow |
|---|---|---|---|---|---|---|---|
| 1777468209 | 15° C | 32% | 1019 hPa | 0 mm | - | - | - |
| 1777467609 | 15.56° C | 31% | 1019.5 hPa | 0 mm | - | - | - |
| 1777467009 | 15.56° C | 33% | 1019.4 hPa | 0 mm | - | - | - |
| 1777466411 | 15° C | 34% | 1019.5 hPa | 0 mm | - | - | - |
| 1777465808 | 15° C | 36% | 1019.3 hPa | 0 mm | - | - | - |
| 1777465211 | 14.44° C | 35% | 1019.6 hPa | 0 mm | - | - | - |
| 1777462208 | 13.33° C | 33% | 1020.5 hPa | 0 mm | - | - | - |
| 1777461610 | 13.89° C | 34% | 1020.7 hPa | 0 mm | - | - | - |
| 1777458609 | 12.22° C | 38% | 1021.2 hPa | 0 mm | - | - | - |
| 1777458013 | 12.22° C | 36% | 1021.6 hPa | 0 mm | - | - | - |
| 1777457411 | 12.22° C | 36% | 1021.9 hPa | 0 mm | - | - | - |
| 1777455612 | 12.78° C | 35% | 1022.3 hPa | 0 mm | - | - | - |
| 1777455009 | 13.33° C | 36% | 1022.6 hPa | 0 mm | - | - | - |
| 1777454411 | 12.78° C | 35% | 1022.7 hPa | 0 mm | - | - | - |
| 1777453813 | 13.89° C | 35% | 1023 hPa | 0 mm | - | - | - |
| 1777453210 | 12.78° C | 36% | 1023.2 hPa | 0 mm | - | - | - |
| 1777452612 | 13.33° C | 35% | 1023.4 hPa | 0 mm | - | - | - |
| 1777452011 | 12.78° C | 37% | 1023.7 hPa | 0 mm | - | - | - |
| 1777450812 | 12.22° C | 38% | 1023.9 hPa | 0 mm | - | - | - |
| 1777450209 | 12.22° C | 39% | 1023.8 hPa | 0 mm | - | - | - |
| 1777449609 | 12.22° C | 37% | 1024 hPa | 0 mm | - | - | - |
| 1777449011 | 12.22° C | 40% | 1024.1 hPa | 0 mm | - | - | - |
| 1777448410 | 12.22° C | 41% | 1024 hPa | 0 mm | - | - | - |
| 1777447809 | 10.56° C | 47% | 1024 hPa | 0 mm | - | - | - |
| 1777447212 | 8.89° C | 48% | 1024.3 hPa | 0 mm | - | - | - |
* Rain latest hour (hover to see other rain measurements)
** Current wind speed in m/s (hover to see current wind gust speed)